| time (UTC) | temp F | wind direction | speed MPH | gust MPH | rain 1hr in | rain 24hr in | rain mn in | humidity % | barometer mb |
| 20260504222102 | 59 | 295 | 2.0 | 2.0 | 0.00 | 0.00 | 0.00 | 59 | 1006.1 |
| 20260504221559 | 59 | 235 | 4.0 | 5.0 | 0.00 | 0.00 | 0.00 | 59 | 1006.6 |
| 20260504221056 | 59 | 305 | 0.0 | 1.0 | 0.00 | 0.00 | 0.00 | 60 | 1006.6 |
| 20260504220552 | 59 | 227 | 2.0 | 2.0 | 0.00 | 0.00 | 0.00 | 60 | 1006.6 |
| 20260504220050 | 59 | 195 | 2.0 | 5.0 | 0.00 | 0.00 | 0.00 | 60 | 1006.6 |
| 20260504215546 | 60 | 279 | 1.0 | 2.0 | 0.00 | 0.00 | 0.00 | 59 | 1006.3 |
| 20260504215044 | 60 | 311 | 1.0 | 2.0 | 0.00 | 0.00 | 0.00 | 59 | 1006.4 |
| 20260504214539 | 59 | 201 | 1.0 | 2.0 | 0.00 | 0.00 | 0.00 | 60 | 1006.5 |
| 20260504214036 | 59 | 248 | 1.0 | 2.0 | 0.00 | 0.00 | 0.00 | 60 | 1006.4 |
| 20260504213532 | 59 | 101 | 0.0 | 2.0 | 0.00 | 0.00 | 0.00 | 60 | 1006.4 |
| 20260504213030 | 59 | 143 | 0.0 | 1.0 | 0.00 | 0.00 | 0.00 | 60 | 1006.2 |
| 20260504212526 | 60 | 344 | 0.0 | 2.0 | 0.00 | 0.00 | 0.00 | 59 | 1006.3 |
| 20260504212023 | 60 | 214 | 3.0 | 3.0 | 0.00 | 0.00 | 0.00 | 58 | 1006.1 |
| 20260504211520 | 60 | 274 | 1.0 | 3.0 | 0.00 | 0.00 | 0.00 | 57 | 1005.9 |
| 20260504211017 | 60 | 231 | 4.0 | 6.0 | 0.00 | 0.00 | 0.00 | 56 | 1006.0 |
| 20260504210514 | 60 | 278 | 3.0 | 7.0 | 0.00 | 0.00 | 0.00 | 57 | 1006.0 |
| 20260504210011 | 61 | 78 | 0.0 | 2.0 | 0.00 | 0.00 | 0.00 | 58 | 1006.0 |
| 20260504205509 | 61 | 298 | 2.0 | 5.0 | 0.00 | 0.00 | 0.00 | 56 | 1005.8 |
| 20260504205006 | 61 | 18 | 4.0 | 6.0 | 0.00 | 0.00 | 0.00 | 55 | 1006.1 |
| 20260504204504 | 61 | 284 | 4.0 | 8.0 | 0.00 | 0.00 | 0.00 | 56 | 1005.9 |
| 20260504204003 | 61 | 272 | 1.0 | 2.0 | 0.00 | 0.00 | 0.00 | 57 | 1005.8 |
| 20260504203500 | 60 | 277 | 3.0 | 7.0 | 0.00 | 0.00 | 0.00 | 58 | 1005.6 |
| 20260504202956 | 60 | 282 | 6.0 | 8.0 | 0.00 | 0.00 | 0.00 | 58 | 1005.9 |
| 20260504202453 | 60 | 230 | 2.0 | 5.0 | 0.00 | 0.00 | 0.00 | 60 | 1005.8 |
| 20260504201950 | 60 | 288 | 5.0 | 7.0 | 0.00 | 0.00 | 0.00 | 59 | 1005.8 |
| 20260504201447 | 60 | 215 | 2.0 | 5.0 | 0.00 | 0.00 | 0.00 | 61 | 1005.7 |
| 20260504200945 | 60 | 29 | 0.0 | 2.0 | 0.00 | 0.00 | 0.00 | 63 | 1005.6 |
| 20260504200441 | 59 | 61 | 1.0 | 2.0 | 0.00 | 0.00 | 0.00 | 65 | 1005.8 |
| 20260504195938 | 59 | 17 | 2.0 | 5.0 | 0.00 | 0.00 | 0.00 | 64 | 1005.6 |
| 20260504195434 | 59 | 285 | 1.0 | 1.0 | 0.00 | 0.00 | 0.00 | 65 | 1005.6 |
| 20260504194930 | 58 | 268 | 5.0 | 7.0 | 0.00 | 0.00 | 0.00 | 64 | 1005.7 |
| 20260504194426 | 59 | 313 | 4.0 | 5.0 | 0.00 | 0.00 | 0.00 | 65 | 1005.7 |
| 20260504193923 | 58 | 7 | 1.0 | 3.0 | 0.00 | 0.00 | 0.00 | 67 | 1006.0 |
| 20260504193420 | 58 | 180 | 1.0 | 2.0 | 0.00 | 0.00 | 0.00 | 66 | 1006.1 |
| 20260504192919 | 57 | 5 | 1.0 | 2.0 | 0.00 | 0.00 | 0.00 | 68 | 1005.9 |
| 20260504192415 | 57 | 260 | 3.0 | 3.0 | 0.00 | 0.00 | 0.00 | 68 | 1005.7 |
| 20260504191914 | 56 | 54 | 1.0 | 1.0 | 0.00 | 0.00 | 0.00 | 69 | 1006.1 |
| 20260504191412 | 56 | 71 | 0.0 | 1.0 | 0.00 | 0.00 | 0.00 | 71 | 1006.0 |
| 20260504190907 | 55 | 122 | 1.0 | 2.0 | 0.00 | 0.00 | 0.00 | 70 | 1006.1 |
| 20260504190403 | 55 | 60 | 1.0 | 2.0 | 0.00 | 0.00 | 0.00 | 72 | 1006.1 |
| 20260504185900 | 55 | 197 | 3.0 | 3.0 | 0.00 | 0.00 | 0.00 | 68 | 1006.4 |
| 20260504185357 | 56 | 157 | 3.0 | 6.0 | 0.00 | 0.00 | 0.00 | 66 | 1006.4 |
| 20260504184853 | 56 | 312 | 1.0 | 2.0 | 0.00 | 0.00 | 0.00 | 69 | 1006.2 |
| 20260504184349 | 56 | 279 | 2.0 | 3.0 | 0.00 | 0.00 | 0.00 | 67 | 1006.4 |
| 20260504183845 | 56 | 253 | 3.0 | 3.0 | 0.00 | 0.00 | 0.00 | 67 | 1006.2 |
| 20260504183343 | 56 | 206 | 1.0 | 5.0 | 0.00 | 0.00 | 0.00 | 67 | 1006.1 |
| 20260504182840 | 56 | 268 | 1.0 | 2.0 | 0.00 | 0.00 | 0.00 | 67 | 1006.4 |
| 20260504182337 | 55 | 250 | 2.0 | 2.0 | 0.00 | 0.00 | 0.00 | 68 | 1006.4 |
| 20260504181834 | 55 | 250 | 3.0 | 3.0 | 0.00 | 0.00 | 0.00 | 68 | 1006.5 |
| 20260504181331 | 55 | 293 | 0.0 | 2.0 | 0.00 | 0.00 | 0.00 | 68 | 1006.4 |
| 20260504180830 | 54 | 38 | 1.0 | 2.0 | 0.00 | 0.00 | 0.00 | 70 | 1006.6 |
| 20260504180328 | 54 | 34 | 0.0 | 3.0 | 0.00 | 0.00 | 0.00 | 69 | 1006.6 |
| 20260504175826 | 54 | 185 | 0.0 | 1.0 | 0.00 | 0.00 | 0.00 | 69 | 1006.6 |
| 20260504175322 | 54 | 244 | 2.0 | 3.0 | 0.00 | 0.00 | 0.00 | 65 | 1006.6 |
| 20260504174821 | 54 | 157 | 1.0 | 1.0 | 0.00 | 0.00 | 0.00 | 66 | 1006.5 |
| 20260504174318 | 54 | 213 | 1.0 | 1.0 | 0.00 | 0.00 | 0.00 | 64 | 1006.4 |
| 20260504173815 | 54 | 245 | 1.0 | 2.0 | 0.00 | 0.00 | 0.00 | 66 | 1006.7 |
| 20260504173311 | 54 | 32 | 0.0 | 1.0 | 0.00 | 0.00 | 0.00 | 67 | 1006.5 |
| 20260504172809 | 53 | 356 | 0.0 | 1.0 | 0.00 | 0.00 | 0.00 | 66 | 1006.5 |
| 20260504172305 | 53 | 341 | 0.0 | 1.0 | 0.00 | 0.00 | 0.00 | 69 | 1006.3 |
| 20260504171801 | 53 | 7 | 0.0 | 1.0 | 0.00 | 0.00 | 0.00 | 71 | 1006.1 |
| 20260504171258 | 52 | 26 | 0.0 | 0.0 | 0.00 | 0.00 | 0.00 | 75 | 1006.1 |
| 20260504170755 | 52 | 105 | 0.0 | 1.0 | 0.00 | 0.00 | 0.00 | 73 | 1006.0 |
| 20260504170252 | 53 | 133 | 0.0 | 1.0 | 0.00 | 0.00 | 0.00 | 74 | 1005.9 |
| 20260504160211 | 58 | 245 | 2.0 | 3.0 | 0.00 | 0.00 | 0.00 | 50 | 1005.5 |
| 20260504151139 | 57 | 32 | 1.0 | 5.0 | 0.00 | 0.00 | 0.00 | 46 | 1006.3 |
| 20260504150636 | 57 | 258 | 1.0 | 2.0 | 0.00 | 0.00 | 0.00 | 46 | 1006.6 |
| 20260504150133 | 57 | 261 | 1.0 | 6.0 | 0.00 | 0.00 | 0.00 | 45 | 1006.4 |
| 20260504141101 | 55 | 119 | 1.0 | 3.0 | 0.00 | 0.00 | 0.00 | 49 | 1007.3 |
| 20260504140558 | 55 | 202 | 2.0 | 5.0 | 0.00 | 0.00 | 0.00 | 47 | 1007.4 |
| 20260504130522 | 51 | 272 | 2.0 | 5.0 | 0.00 | 0.00 | 0.00 | 52 | 1008.1 |
| 20260504110410 | 43 | 266 | 2.0 | 3.0 | 0.00 | 0.00 | 0.00 | 63 | 1008.2 |
| 20260504100326 | 41 | 227 | 0.0 | 3.0 | 0.00 | 0.00 | 0.00 | 68 | 1007.8 |
| 20260504081720 | 41 | 236 | 6.0 | 8.0 | 0.00 | 0.00 | 0.00 | 65 | 1007.0 |
| 20260504081216 | 41 | 272 | 3.0 | 5.0 | 0.00 | 0.00 | 0.00 | 65 | 1007.0 |
| 20260504080712 | 41 | 173 | 3.0 | 5.0 | 0.00 | 0.00 | 0.00 | 65 | 1007.1 |
| 20260504080209 | 41 | 312 | 1.0 | 5.0 | 0.00 | 0.00 | 0.00 | 65 | 1006.9 |
| 20260504070137 | 39 | 287 | 3.0 | 3.0 | 0.00 | 0.00 | 0.00 | 70 | 1006.7 |
| 20260504050525 | 40 | 301 | 3.0 | 3.0 | 0.00 | 0.00 | 0.00 | 71 | 1006.2 |
| 20260504050022 | 40 | 255 | 2.0 | 6.0 | 0.00 | 0.00 | 0.00 | 70 | 1006.0 |
| 20260504045519 | 39 | 245 | 2.0 | 2.0 | 0.00 | 0.00 | 0.00 | 71 | 1006.0 |
| 20260504045015 | 39 | 307 | 1.0 | 2.0 | 0.00 | 0.00 | 0.00 | 71 | 1006.1 |
| 20260504044512 | 40 | 289 | 2.0 | 5.0 | 0.00 | 0.00 | 0.00 | 70 | 1005.9 |
| 20260504044009 | 40 | 284 | 1.0 | 3.0 | 0.00 | 0.00 | 0.00 | 71 | 1005.9 |
| 20260504043506 | 40 | 241 | 2.0 | 5.0 | 0.00 | 0.00 | 0.00 | 70 | 1005.8 |
| 20260504043004 | 40 | 296 | 2.0 | 5.0 | 0.00 | 0.00 | 0.00 | 70 | 1005.8 |
| 20260504042500 | 40 | 286 | 2.0 | 2.0 | 0.00 | 0.00 | 0.00 | 69 | 1005.6 |
| 20260504041957 | 40 | 335 | 2.0 | 5.0 | 0.00 | 0.00 | 0.00 | 69 | 1005.7 |
| 20260504041453 | 40 | 239 | 1.0 | 3.0 | 0.00 | 0.00 | 0.00 | 71 | 1005.6 |
| 20260504040949 | 40 | 313 | 2.0 | 5.0 | 0.00 | 0.00 | 0.00 | 69 | 1005.7 |
| 20260504040447 | 40 | 259 | 2.0 | 2.0 | 0.00 | 0.00 | 0.00 | 70 | 1005.8 |
| 20260504035943 | 40 | 318 | 1.0 | 5.0 | 0.00 | 0.87 | 0.87 | 70 | 1005.4 |
| 20260504035441 | 40 | 299 | 1.0 | 2.0 | 0.00 | 0.87 | 0.87 | 71 | 1005.5 |
| 20260504034937 | 41 | 239 | 1.0 | 2.0 | 0.00 | 0.87 | 0.87 | 70 | 1005.4 |
| 20260504034435 | 41 | 278 | 2.0 | 2.0 | 0.00 | 0.87 | 0.87 | 71 | 1005.6 |
| 20260504033931 | 41 | 259 | 2.0 | 3.0 | 0.00 | 0.87 | 0.87 | 70 | 1005.6 |
| 20260504033429 | 41 | 283 | 1.0 | 3.0 | 0.00 | 0.87 | 0.87 | 70 | 1005.6 |
| 20260504032926 | 41 | 270 | 2.0 | 5.0 | 0.00 | 0.87 | 0.87 | 68 | 1005.4 |
| 20260504032423 | 41 | 262 | 2.0 | 5.0 | 0.00 | 0.87 | 0.87 | 69 | 1005.4 |
| 20260504031920 | 41 | 305 | 1.0 | 2.0 | 0.00 | 0.87 | 0.87 | 70 | 1005.5 |
| 20260504031417 | 41 | 256 | 1.0 | 3.0 | 0.00 | 0.87 | 0.87 | 70 | 1005.5 |
| 20260504030913 | 41 | 293 | 1.0 | 2.0 | 0.00 | 0.87 | 0.87 | 70 | 1005.4 |
| 20260504030410 | 41 | 297 | 1.0 | 2.0 | 0.00 | 0.87 | 0.87 | 71 | 1005.1 |
| 20260504025906 | 41 | 266 | 4.0 | 7.0 | 0.00 | 0.87 | 0.87 | 70 | 1005.3 |
| 20260504025404 | 41 | 236 | 2.0 | 3.0 | 0.00 | 0.87 | 0.87 | 69 | 1005.1 |
| 20260504024900 | 41 | 236 | 2.0 | 3.0 | 0.00 | 0.87 | 0.87 | 70 | 1005.1 |
| 20260504024356 | 41 | 292 | 3.0 | 5.0 | 0.00 | 0.87 | 0.87 | 70 | 1005.2 |
| 20260504023854 | 41 | 241 | 2.0 | 2.0 | 0.00 | 0.87 | 0.87 | 70 | 1005.2 |
| 20260504023350 | 42 | 319 | 2.0 | 3.0 | 0.00 | 0.87 | 0.87 | 69 | 1004.9 |
| 20260504022846 | 42 | 325 | 0.0 | 3.0 | 0.00 | 0.87 | 0.87 | 69 | 1005.0 |
| 20260504022343 | 42 | 296 | 3.0 | 3.0 | 0.00 | 0.87 | 0.87 | 69 | 1005.1 |
| 20260504021839 | 42 | 312 | 2.0 | 3.0 | 0.00 | 0.87 | 0.87 | 70 | 1005.0 |
| 20260504021337 | 42 | 234 | 3.0 | 5.0 | 0.00 | 0.87 | 0.87 | 69 | 1004.7 |
| 20260504020834 | 42 | 326 | 2.0 | 6.0 | 0.00 | 0.87 | 0.87 | 70 | 1004.7 |
| 20260504020330 | 42 | 319 | 3.0 | 6.0 | 0.00 | 0.87 | 0.87 | 69 | 1004.8 |
| 20260504015826 | 42 | 11 | 2.0 | 3.0 | 0.00 | 0.87 | 0.87 | 70 | 1004.8 |
| 20260504015323 | 42 | 339 | 1.0 | 5.0 | 0.00 | 0.87 | 0.87 | 72 | 1004.5 |
| 20260504014819 | 42 | 333 | 0.0 | 5.0 | 0.00 | 0.87 | 0.87 | 73 | 1004.5 |
| 20260504014315 | 43 | 339 | 1.0 | 2.0 | 0.00 | 0.87 | 0.87 | 72 | 1004.7 |
| 20260504013813 | 43 | 275 | 2.0 | 3.0 | 0.00 | 0.87 | 0.87 | 72 | 1004.5 |
| 20260504013311 | 43 | 345 | 2.0 | 5.0 | 0.00 | 0.87 | 0.87 | 71 | 1004.5 |
| 20260504012807 | 43 | 277 | 1.0 | 5.0 | 0.00 | 0.87 | 0.87 | 72 | 1004.3 |
| 20260504012305 | 43 | 306 | 5.0 | 6.0 | 0.00 | 0.87 | 0.87 | 72 | 1004.5 |
| 20260504011802 | 43 | 22 | 2.0 | 5.0 | 0.00 | 0.87 | 0.87 | 77 | 1004.4 |
| 20260504011259 | 43 | 348 | 2.0 | 2.0 | 0.00 | 0.87 | 0.87 | 80 | 1004.2 |
| 20260504010754 | 43 | 328 | 1.0 | 2.0 | 0.00 | 0.87 | 0.87 | 82 | 1004.1 |
| 20260504010250 | 43 | 248 | 3.0 | 3.0 | 0.00 | 0.87 | 0.87 | 85 | 1004.3 |
| 20260504005747 | 43 | 30 | 1.0 | 1.0 | 0.00 | 0.87 | 0.87 | 94 | 1004.0 |
| 20260504005244 | 42 | 309 | 1.0 | 2.0 | 0.00 | 0.87 | 0.87 | 97 | 1004.0 |
| 20260504004742 | 42 | 330 | 0.0 | 1.0 | 0.00 | 0.87 | 0.87 | 98 | 1003.9 |
| 20260504004239 | 42 | 288 | 2.0 | 2.0 | 0.00 | 0.87 | 0.87 | 99 | 1003.8 |
| 20260504003735 | 42 | 343 | 0.0 | 1.0 | 0.00 | 0.87 | 0.87 | 99 | 1003.9 |
| 20260504003232 | 43 | 357 | 0.0 | 1.0 | 0.00 | 0.87 | 0.87 | 99 | 1003.5 |
| 20260504002729 | 43 | 324 | 1.0 | 2.0 | 0.00 | 0.87 | 0.87 | 99 | 1003.6 |
| 20260504002226 | 43 | 15 | 0.0 | 1.0 | 0.00 | 0.87 | 0.87 | 98 | 1003.6 |
| 20260504001724 | 43 | 22 | 1.0 | 1.0 | 0.00 | 0.87 | 0.87 | 98 | 1003.4 |
| 20260504001220 | 43 | 4 | 1.0 | 3.0 | 0.00 | 0.87 | 0.87 | 97 | 1003.3 |
| 20260504000717 | 43 | 40 | 0.0 | 2.0 | 0.00 | 0.87 | 0.87 | 97 | 1003.5 |
| 20260504000214 | 43 | 304 | 1.0 | 3.0 | 0.00 | 0.87 | 0.87 | 98 | 1003.4 |
| 20260503235712 | 43 | 354 | 1.0 | 1.0 | 0.00 | 0.87 | 0.87 | 98 | 1003.3 |
| 20260503235209 | 43 | 340 | 1.0 | 2.0 | 0.00 | 0.87 | 0.87 | 99 | 1003.3 |
| 20260503234707 | 43 | 354 | 1.0 | 2.0 | 0.00 | 0.87 | 0.87 | 99 | 1003.3 |
| 20260503234205 | 43 | 318 | 1.0 | 5.0 | 0.00 | 0.87 | 0.87 | 99 | 1003.2 |
| 20260503233701 | 43 | 27 | 2.0 | 3.0 | 0.00 | 0.87 | 0.87 | 99 | 1003.2 |
| 20260503233157 | 43 | 312 | 2.0 | 2.0 | 0.00 | 0.87 | 0.87 | 99 | 1003.1 |
| 20260503232654 | 43 | 32 | 2.0 | 3.0 | 0.00 | 0.87 | 0.87 | 99 | 1003.0 |
| 20260503232151 | 43 | 38 | 4.0 | 7.0 | 0.00 | 0.87 | 0.87 | 99 | 1003.0 |
| 20260503231650 | 43 | 358 | 2.0 | 6.0 | 0.00 | 0.87 | 0.87 | 98 | 1002.9 |
| 20260503231145 | 43 | 336 | 2.0 | 5.0 | 0.00 | 0.87 | 0.87 | 98 | 1002.8 |
| 20260503230642 | 43 | 326 | 1.0 | 3.0 | 0.00 | 0.87 | 0.87 | 98 | 1002.7 |
| 20260503230139 | 43 | 321 | 2.0 | 3.0 | 0.00 | 0.87 | 0.87 | 98 | 1002.8 |
| 20260503225637 | 43 | 320 | 4.0 | 8.0 | 0.00 | 0.87 | 0.87 | 98 | 1002.8 |
| 20260503225136 | 43 | 30 | 1.0 | 3.0 | 0.00 | 0.87 | 0.87 | 99 | 1002.7 |
| 20260503224634 | 43 | 344 | 2.0 | 3.0 | 0.00 | 0.87 | 0.87 | 99 | 1002.6 |
| 20260503224132 | 43 | 13 | 1.0 | 5.0 | 0.00 | 0.87 | 0.87 | 99 | 1002.5 |
| 20260503223630 | 43 | 38 | 3.0 | 6.0 | 0.00 | 0.87 | 0.87 | 98 | 1002.6 |
| 20260503223126 | 43 | 10 | 7.0 | 8.0 | 0.00 | 0.87 | 0.87 | 98 | 1002.6 |
| 20260503222623 | 43 | 23 | 1.0 | 3.0 | 0.00 | 0.87 | 0.87 | 99 | 1002.6 |